QPF
0.19 0.18 0.13 0.23 0.36 0.32 0.20 0.05 0.03 0.05 0.17 0.16 0.10 0.06 0.04 0.10 0.12 0.11 0.06 0.05 0.15 0.13 0.06 0.06 0.09 0.09 0.09 0.01 0.07 0.07 0.04 0.03 0.05 0.03 0.01 0.01 0.02 0.03 0.02 0.01 0.00 0.00
0.03 0.02 0.12 0.46 0.47 0.51 0.42 0.24 0.22 0.16 0.08 0.31 0.11 0.08 0.10 0.02 0.02 0.02 0.07 0.04 0.04 0.03 0.05 0.08 0.31 0.20 0.11 0.03 0.10 0.09 0.05 0.04 0.03 0.02 0.03 0.02 0.02 0.06 0.03 0.02 0.00 0.00
0.02 0.00 0.04 0.23 0.29 0.32 0.42 0.40 0.19 0.30 0.17 0.10 0.27 0.30 0.18 0.07 0.03 0.03 0.05 0.06 0.06 0.03 0.01 0.01 0.04 0.09 0.03 0.06 0.06 0.06 0.05 0.03 0.05 0.04 0.03 0.01 0.00 0.02 0.06 0.05 0.03 0.00
0.02 0.00 0.01 0.11 0.17 0.12 0.20 0.33 0.24 0.10 0.05 0.06 0.11 0.10 0.03 0.04 0.11 0.04 0.09 0.03 0.10 0.07 0.02 0.07 0.08 0.03 0.05 0.06 0.12 0.06 0.06 0.04 0.04 0.03 0.05 0.06 0.02 0.02 0.06 0.03 0.02 0.02
0.01 0.01 0.01 0.12 0.13 0.18 0.14 0.16 0.09 0.08 0.06 0.08 0.07 0.05 0.03 0.02 0.02 0.02 0.03 0.03 0.13 0.45 0.18 0.04 0.06 0.05 0.05 0.05 0.12 0.11 0.06 0.08 0.05 0.06 0.06 0.03 0.02 0.01 0.01 0.03 0.01 0.01
0.03 0.03 0.01 0.12 0.21 0.14 0.13 0.13 0.12 0.29 0.21 0.18 0.19 0.05 0.04 0.03 0.03 0.03 0.05 0.10 0.21 0.17 0.11 0.14 0.21 0.22 0.27 0.16 0.11 0.12 0.10 0.05 0.04 0.03 0.06 0.03 0.03 0.03 0.02 0.02 0.02 0.01
0.07 0.06 0.17 0.18 0.18 0.14 0.22 0.18 0.13 0.15 0.10 0.12 0.42 0.09 0.06 0.05 0.04 0.05 0.11 0.20 0.06 0.15 0.09 0.23 0.48 0.24 0.17 0.19 0.33 0.38 0.08 0.02 0.04 0.12 0.11 0.05 0.03 0.08 0.05 0.04 0.02 0.01
0.11 0.12 0.18 0.22 0.32 0.27 0.27 0.20 0.19 0.12 0.06 0.05 0.11 0.38 0.08 0.09 0.06 0.08 0.20 0.22 0.15 0.14 0.18 0.23 0.08 0.36 0.08 0.04 0.15 0.17 0.18 0.10 0.10 0.07 0.08 0.05 0.03 0.06 0.08 0.06 0.03 0.01
0.12 0.21 0.17 0.16 0.22 0.22 0.13 0.15 0.19 0.14 0.07 0.05 0.10 0.09 0.25 0.14 0.10 0.18 0.06 0.07 0.19 0.21 0.22 0.13 0.10 0.20 0.07 0.07 0.10 0.13 0.19 0.13 0.30 0.24 0.14 0.04 0.04 0.08 0.07 0.10 0.13 0.11
0.11 0.17 0.23 0.33 0.31 0.16 0.28 0.28 0.13 0.02 0.04 0.07 0.05 0.03 0.09 0.04 0.05 0.25 0.12 0.18 0.15 0.07 0.12 0.05 0.57 0.41 0.28 0.11 0.12 0.08 0.19 0.11 0.27 0.21 0.17 0.13 0.04 0.04 0.14 0.29 0.23 0.15
0.15 0.12 0.23 0.21 0.14 0.25 0.24 0.18 0.11 0.08 0.05 0.07 0.04 0.03 0.04 0.04 0.08 0.06 0.12 0.08 0.17 0.09 0.27 0.27 0.11 0.12 0.20 0.32 0.29 0.08 0.10 0.24 0.17 0.22 0.09 0.04 0.06 0.11 0.13 0.44 0.15 0.12
0.29 0.21 0.15 0.15 0.17 0.19 0.15 0.18 0.18 0.11 0.11 0.06 0.01 0.04 0.01 0.03 0.03 0.08 0.07 0.11 0.10 0.07 0.20 0.17 0.21 0.18 0.17 0.26 0.28 0.36 0.10 0.10 0.08 0.12 0.07 0.14 0.04 0.47 0.47 0.34 0.33 0.08
0.21 0.13 0.05 0.08 0.08 0.15 0.14 0.09 0.07 0.08 0.07 0.09 0.03 0.04 0.04 0.02 0.04 0.16 0.22 0.15 0.10 0.04 0.07 0.06 0.06 0.14 0.34 0.37 0.35 0.59 0.33 0.18 0.13 0.10 0.04 0.17 0.28 0.19 0.16 0.19 0.33 0.20
0.19 0.10 0.17 0.18 0.28 0.23 0.19 0.18 0.43 0.18 0.07 0.05 0.11 0.07 0.15 0.27 0.21 0.20 0.12 0.08 0.11 0.02 0.03 0.05 0.22 0.22 0.11 0.08 0.14 0.22 0.20 0.21 0.14 0.17 0.72 0.48 0.25 0.28 0.33 0.43 0.37 0.10
0.13 0.13 0.21 0.33 0.25 0.19 0.26 0.36 0.34 0.40 0.34 0.40 0.16 0.13 0.57 0.51 0.30 0.06 0.03 0.06 0.07 0.08 0.05 0.02 0.11 0.21 0.11 0.10 0.18 0.12 0.11 0.13 0.11 0.19 0.24 0.14 0.37 0.16 0.18 0.41 0.60 0.36
0.05 0.06 0.17 0.27 0.27 0.54 0.42 0.50 0.50 0.71 0.61 0.40 0.14 0.33 0.44 0.36 0.21 0.04 0.07 0.14 0.13 0.06 0.06 0.03 0.04 0.09 0.10 0.02 0.05 0.03 0.03 0.07 0.06 0.07 0.11 0.09 0.12 0.19 0.19 0.13 0.19 0.33
0.02 0.01 0.04 0.07 0.04 0.27 0.31 0.21 0.23 0.25 0.19 0.45 0.42 0.26 0.32 0.28 0.21 0.15 0.15 0.23 0.15 0.25 0.13 0.04 0.06 0.04 0.01 0.00 0.00 0.00 0.01 0.05 0.03 0.05 0.05 0.08 0.09 0.10 0.12 0.04 0.07 0.17
0.01 0.01 0.02 0.02 0.03 0.07 0.10 0.05 0.08 0.10 0.18 0.33 0.17 0.22 0.24 0.11 0.21 0.12 0.13 0.09 0.11 0.19 0.20 0.08 0.03 0.01 0.00 0.00 0.00 0.00 0.00 0.01 0.03 0.05 0.06 0.06 0.06 0.04 0.02 0.02 0.02 0.05
0.00 0.00 0.01 0.02 0.02 0.03 0.08 0.06 0.08 0.09 0.09 0.10 0.07 0.05 0.06 0.03 0.03 0.05 0.06 0.06 0.05 0.04 0.05 0.06 0.03 0.00 0.00 0.00 0.00 0.00 0.00 0.00 0.01 0.03 0.04 0.04 0.05 0.07 0.04 0.04 0.02 0.06
0.00 0.00 0.00 0.01 0.01 0.02 0.02 0.03 0.04 0.05 0.03 0.02 0.01 0.01 0.00 0.01 0.00 0.01 0.00 0.00 0.00 0.01 0.03 0.05 0.02 0.00 0.00 0.00 0.00 0.00 0.00 0.00 0.00 0.01 0.02 0.04 0.03 0.03 0.04 0.06 0.03 0.03
0.00 0.00 0.00 0.00 0.00 0.01 0.01 0.01 0.01 0.01 0.01 0.01 0.00 0.00 0.00 0.00 0.00 0.00 0.00 0.00 0.00 0.00 0.00 0.01 0.01 0.00 0.00 0.00 0.00 0.00 0.00 0.00 0.00 0.01 0.01 0.01 0.02 0.03 0.05 0.06 0.06 0.07
0.00 0.00 0.00 0.00 0.00 0.00 0.00 0.00 0.00 0.00 0.00 0.00 0.00 0.00 0.00 0.00 0.00 0.00 0.00 0.00 0.00 0.00 0.00 0.00 0.00 0.00 0.00 0.00 0.00 0.00 0.00 0.00 0.00 0.00 0.00 0.00 0.01 0.01 0.01 0.01 0.03 0.03
0.00 0.01 0.00 0.00 0.00 0.00 0.00 0.00 0.00 0.00 0.00 0.00 0.00 0.00 0.00 0.00 0.00 0.00 0.00 0.00 0.00 0.00 0.00 0.00 0.00 0.00 0.00 0.00 0.00 0.00 0.00 0.00 0.00 0.00 0.00 0.00 0.00 0.00 0.00 0.00 0.00 0.01
0.00 0.00 0.00 0.00 0.00 0.00 0.00 0.00 0.00 0.00 0.00 0.00 0.00 0.00 0.00 0.00 0.00 0.00 0.00 0.00 0.00 0.00 0.00 0.02 0.00 0.00 0.00 0.00 0.00 0.00 0.00 0.00 0.00 0.00 0.00 0.00 0.00 0.00 0.00 0.00 0.00 0.00
0.00 0.00 0.01 0.00 0.00 0.00 0.00 0.00 0.00 0.00 0.00 0.00 0.00 0.00 0.00 0.00 0.00 0.00 0.00 0.00 0.00 0.00 0.00 0.00 0.00 0.00 0.00 0.00 0.00 0.00 0.00 0.00 0.00 0.00 0.00 0.00 0.00 0.00 0.00 0.00 0.00 0.00
0.00 0.00 0.00 0.00 0.00 0.00 0.00 0.00 0.00 0.00 0.00 0.00 0.00 0.00 0.00 0.00 0.00 0.00 0.00 0.00 0.00 0.00 0.00 0.00 0.00 0.00 0.00 0.00 0.00 0.00 0.00 0.00 0.00 0.00 0.00 0.00 0.00 0.00 0.00 0.00 0.00 0.00
MSLP
1012.59 1012.81 1013.17 1013.47 1013.65 1013.71 1013.91 1014.15 1014.11 1014.13 1014.23 1014.15 1014.19 1014.01 1013.91 1013.81 1013.81 1014.01 1014.21 1014.25 1014.13 1014.15 1014.29 1014.37 1014.39 1014.59 1014.61 1014.67 1014.71 1014.83 1014.99 1015.13 1015.15 1015.09 1015.21 1015.21 1015.25 1015.33 1015.53 1015.29 1015.09 1015.07
1012.71 1012.81 1013.03 1013.29 1013.55 1013.61 1013.67 1013.69 1013.85 1013.89 1013.99 1014.15 1014.05 1013.85 1013.65 1013.63 1013.55 1013.51 1013.81 1014.11 1014.15 1014.17 1014.09 1014.27 1014.43 1014.51 1014.55 1014.61 1014.67 1014.83 1014.95 1014.95 1015.09 1014.71 1015.07 1015.23 1015.19 1015.15 1015.25 1015.25 1015.41 1015.05
1012.61 1012.81 1012.99 1013.29 1013.51 1013.59 1013.61 1013.55 1013.63 1013.77 1013.83 1013.83 1013.81 1013.79 1013.81 1013.65 1013.59 1013.37 1013.41 1013.77 1014.07 1014.21 1014.21 1014.25 1014.43 1014.43 1014.35 1014.41 1014.59 1014.89 1015.07 1015.09 1015.13 1014.85 1015.01 1015.21 1015.15 1015.21 1015.13 1015.05 1015.31 1014.77
1012.39 1012.47 1012.75 1012.95 1013.09 1013.31 1013.37 1013.57 1013.69 1013.67 1013.63 1013.77 1013.77 1013.63 1013.57 1013.53 1013.55 1013.39 1013.35 1013.61 1014.19 1014.49 1014.29 1014.23 1014.25 1014.23 1014.29 1014.37 1014.53 1014.81 1014.83 1014.91 1014.83 1014.83 1015.07 1015.09 1015.03 1014.97 1014.93 1014.79 1014.73 1014.59
1012.11 1012.29 1012.39 1012.55 1012.69 1012.85 1013.07 1013.37 1013.53 1013.53 1013.51 1013.39 1013.31 1013.17 1013.25 1013.31 1013.37 1013.25 1013.21 1013.45 1014.01 1014.69 1014.71 1014.65 1014.47 1014.39 1014.29 1014.35 1014.43 1014.77 1014.69 1014.83 1014.65 1014.69 1015.01 1015.15 1014.91 1014.85 1014.73 1014.55 1014.57 1014.59
1011.77 1011.91 1011.99 1012.27 1012.53 1012.77 1012.99 1013.07 1013.09 1013.17 1013.19 1013.29 1013.17 1012.89 1012.93 1012.99 1013.13 1013.17 1013.15 1013.41 1013.67 1014.19 1014.61 1014.71 1014.79 1014.81 1014.43 1014.27 1014.29 1014.37 1014.51 1014.65 1014.47 1014.51 1014.79 1014.91 1014.77 1014.51 1014.41 1014.41 1014.47 1014.65
1011.73 1011.77 1011.91 1011.99 1012.25 1012.41 1012.71 1012.75 1012.77 1012.79 1012.91 1012.87 1012.89 1013.07 1012.97 1013.07 1013.13 1013.11 1013.21 1013.41 1013.53 1013.91 1014.35 1015.03 1015.55 1015.07 1014.37 1014.21 1014.15 1014.35 1014.41 1014.43 1014.39 1014.49 1014.65 1014.59 1014.53 1014.51 1014.21 1014.17 1014.21 1014.25
1011.55 1011.49 1011.69 1011.91 1012.15 1012.27 1012.47 1012.55 1012.61 1012.69 1012.67 1012.81 1013.05 1012.99 1013.05 1013.15 1013.05 1012.95 1013.07 1013.35 1013.69 1013.95 1014.23 1014.57 1014.83 1014.89 1014.17 1013.87 1014.09 1014.25 1014.31 1014.09 1014.21 1014.33 1014.51 1014.53 1014.45 1014.51 1014.23 1013.91 1013.89 1014.09
1011.47 1011.71 1011.73 1011.97 1012.17 1012.25 1012.45 1012.49 1012.59 1012.61 1012.53 1012.79 1012.87 1012.97 1012.99 1013.07 1013.05 1012.93 1012.93 1013.03 1013.33 1013.63 1014.01 1014.27 1014.31 1014.25 1014.05 1013.99 1014.01 1014.09 1014.25 1014.21 1014.05 1014.15 1014.33 1014.55 1014.53 1014.33 1014.05 1013.89 1014.21 1014.29
1011.67 1011.71 1011.93 1012.05 1012.23 1012.19 1012.37 1012.41 1012.45 1012.55 1012.49 1012.65 1012.73 1012.81 1013.09 1012.97 1012.97 1012.99 1013.03 1013.11 1013.17 1013.47 1013.79 1013.87 1013.83 1013.99 1014.07 1013.89 1013.85 1013.85 1014.09 1014.15 1014.03 1014.09 1014.13 1014.13 1014.21 1014.01 1013.93 1014.13 1014.35 1014.65
1011.69 1011.71 1011.91 1011.97 1012.01 1012.05 1012.25 1012.29 1012.39 1012.45 1012.43 1012.59 1012.71 1012.79 1012.59 1012.69 1012.83 1012.67 1012.75 1012.85 1013.17 1013.51 1013.65 1013.87 1013.95 1013.91 1013.93 1013.91 1013.95 1013.89 1013.89 1013.83 1013.85 1013.97 1014.05 1013.99 1013.75 1013.51 1013.59 1013.83 1014.05 1014.29
1011.85 1011.89 1011.71 1011.63 1011.79 1011.95 1012.11 1012.19 1012.31 1012.45 1012.55 1012.57 1012.65 1012.71 1012.49 1012.33 1012.49 1012.59 1012.71 1013.03 1013.11 1013.23 1013.37 1013.55 1013.49 1013.57 1013.75 1014.01 1013.95 1013.73 1013.59 1013.51 1013.49 1013.61 1013.69 1013.65 1013.53 1013.55 1013.73 1013.85 1014.07 1014.09
1011.85 1011.75 1011.41 1011.37 1011.53 1011.75 1011.83 1011.95 1012.17 1012.37 1012.61 1012.73 1012.51 1012.49 1012.47 1012.49 1012.35 1012.89 1012.83 1012.93 1012.91 1012.95 1013.35 1013.33 1013.33 1013.37 1013.59 1013.75 1013.73 1013.59 1013.49 1013.47 1013.43 1013.45 1013.47 1013.41 1013.41 1013.41 1013.41 1013.57 1013.65 1013.69
1011.47 1011.49 1011.77 1011.51 1011.29 1011.47 1011.73 1011.93 1012.05 1012.17 1012.27 1012.29 1012.33 1012.65 1012.87 1013.11 1013.05 1012.99 1012.89 1012.55 1012.81 1012.59 1012.69 1012.83 1013.07 1013.27 1013.47 1013.61 1013.63 1013.43 1013.37 1013.37 1013.33 1013.37 1013.41 1013.41 1013.35 1013.29 1013.19 1013.27 1013.35 1013.35
1011.63 1011.71 1011.35 1011.15 1011.31 1011.51 1011.77 1011.97 1012.03 1011.87 1011.89 1012.09 1012.37 1012.79 1013.31 1013.71 1013.39 1012.69 1012.73 1012.75 1012.39 1012.41 1012.67 1012.79 1013.13 1013.39 1013.49 1013.59 1013.53 1013.33 1013.17 1013.13 1013.15 1013.19 1013.23 1013.25 1013.19 1013.19 1013.15 1013.17 1013.21 1013.19
1010.53 1010.71 1011.03 1011.13 1011.35 1011.41 1011.57 1011.99 1012.17 1012.01 1011.75 1011.91 1012.25 1012.71 1013.45 1013.77 1013.23 1012.63 1012.53 1012.53 1012.53 1012.59 1013.07 1013.17 1013.23 1013.31 1013.51 1013.33 1013.03 1013.05 1012.99 1012.91 1012.91 1013.01 1013.01 1013.07 1013.17 1013.21 1013.15 1013.01 1013.01 1013.05
1010.23 1010.43 1010.63 1010.95 1011.13 1011.31 1011.67 1012.05 1012.25 1011.91 1011.77 1011.77 1011.97 1012.33 1012.95 1013.51 1012.99 1012.85 1012.77 1012.55 1012.65 1012.89 1013.25 1013.21 1013.39 1013.57 1013.55 1013.37 1013.17 1013.05 1012.85 1012.69 1012.73 1012.87 1012.91 1013.03 1013.17 1013.27 1013.23 1013.11 1012.95 1012.79
1010.05 1010.21 1010.51 1010.75 1011.05 1011.39 1011.55 1011.73 1011.73 1011.83 1011.87 1011.97 1012.09 1012.55 1013.01 1013.01 1013.03 1012.57 1012.55 1012.61 1012.83 1013.13 1013.35 1013.47 1013.65 1013.65 1013.53 1013.43 1013.39 1013.25 1013.11 1012.81 1012.47 1012.55 1012.73 1012.97 1012.95 1013.01 1012.97 1012.91 1012.89 1012.75
1009.79 1010.03 1010.29 1010.53 1010.81 1011.17 1011.43 1011.55 1011.71 1012.13 1012.31 1012.43 1012.55 1012.79 1013.01 1013.03 1012.83 1012.65 1012.61 1012.61 1012.81 1013.17 1013.31 1013.29 1013.45 1013.61 1013.59 1013.61 1013.59 1013.51 1013.29 1012.95 1012.51 1012.37 1012.55 1012.65 1012.67 1012.69 1012.77 1012.87 1012.85 1012.83
1009.57 1009.71 1010.03 1010.31 1010.51 1010.83 1011.19 1011.43 1011.77 1012.15 1012.23 1012.09 1012.11 1012.29 1012.57 1012.65 1012.63 1012.59 1012.49 1012.45 1012.29 1012.33 1012.77 1013.21 1013.59 1013.79 1013.77 1013.75 1013.71 1013.61 1013.37 1013.11 1012.65 1012.51 1012.39 1012.31 1012.37 1012.45 1012.51 1012.63 1012.73 1012.83
1009.51 1009.67 1009.85 1010.01 1010.29 1010.61 1010.87 1011.19 1011.45 1011.57 1011.69 1011.77 1011.83 1012.01 1012.21 1012.27 1012.23 1012.27 1012.29 1012.17 1011.97 1011.93 1012.85 1013.43 1013.75 1013.89 1013.79 1013.69 1013.61 1013.43 1013.23 1012.97 1012.55 1012.39 1012.27 1012.15 1011.95 1011.89 1012.11 1012.27 1012.43 1012.51
1009.55 1009.73 1009.93 1010.05 1010.25 1010.47 1010.77 1011.01 1011.15 1011.27 1011.47 1011.49 1011.67 1011.81 1011.81 1011.87 1012.07 1012.13 1012.31 1012.31 1012.23 1012.15 1013.09 1013.59 1013.95 1014.01 1013.83 1013.67 1013.49 1013.29 1013.05 1012.67 1012.41 1012.35 1012.25 1012.05 1011.89 1011.67 1011.67 1011.81 1011.95 1012.11
1009.53 1009.81 1010.05 1010.15 1010.29 1010.51 1010.71 1010.85 1010.99 1011.13 1011.19 1011.25 1011.71 1011.89 1012.09 1012.31 1012.45 1012.45 1012.37 1012.45 1012.51 1012.41 1012.99 1013.63 1013.89 1014.01 1013.89 1013.79 1013.59 1013.41 1013.17 1012.95 1012.89 1012.77 1012.59 1012.39 1012.11 1011.83 1011.85 1011.95 1011.95 1011.95
1009.51 1009.75 1010.09 1010.15 1010.33 1010.55 1010.65 1010.75 1010.77 1010.91 1011.19 1011.31 1011.79 1012.07 1012.31 1012.27 1012.35 1012.47 1012.51 1012.53 1012.57 1012.53 1012.69 1013.39 1013.81 1013.97 1013.89 1013.73 1013.61 1013.41 1013.29 1013.17 1013.09 1013.03 1012.85 1012.61 1012.31 1012.05 1011.99 1012.09 1012.13 1012.05
1009.59 1009.77 1010.05 1010.19 1010.45 1010.53 1010.59 1010.93 1011.01 1011.17 1011.31 1011.33 1011.63 1011.85 1011.93 1011.91 1011.95 1012.25 1012.45 1012.45 1012.39 1012.39 1012.37 1013.01 1013.55 1013.77 1013.77 1013.69 1013.59 1013.41 1013.23 1013.15 1013.13 1013.05 1012.97 1012.75 1012.55 1012.47 1012.23 1012.25 1012.21 1012.47
1009.63 1009.81 1009.93 1010.15 1010.33 1010.47 1010.55 1010.73 1010.87 1011.21 1011.43 1011.61 1011.79 1011.79 1011.83 1011.83 1011.93 1011.99 1012.21 1012.33 1012.31 1012.33 1012.39 1012.71 1013.29 1013.57 1013.67 1013.61 1013.57 1013.51 1013.29 1013.11 1013.05 1013.11 1013.05 1012.91 1012.75 1012.65 1012.73 1012.53 1012.35 1012.73
Thickness
5790 5789 5786 5785 5784 5784 5784 5783 5784 5785 5784 5784 5784 5785 5787 5787 5788 5789 5787 5785 5786 5787 5788 5787 5787 5787 5787 5788 5787 5786 5786 5785 5785 5787 5787 5787 5787 5788 5787 5788 5789 5789
5786 5788 5786 5784 5783 5782 5783 5784 5784 5785 5784 5784 5785 5787 5788 5788 5789 5791 5790 5787 5786 5786 5787 5786 5786 5786 5787 5787 5787 5786 5786 5785 5786 5788 5787 5786 5787 5788 5787 5787 5787 5788
5785 5786 5784 5783 5782 5781 5783 5784 5784 5785 5784 5785 5785 5785 5786 5787 5788 5791 5792 5788 5785 5784 5785 5785 5785 5786 5787 5788 5787 5785 5785 5784 5786 5788 5787 5785 5786 5787 5787 5787 5787 5789
5785 5784 5784 5783 5783 5783 5783 5782 5782 5783 5784 5784 5786 5786 5787 5787 5787 5789 5791 5789 5784 5781 5782 5783 5784 5786 5786 5787 5786 5784 5784 5785 5786 5787 5785 5785 5787 5787 5788 5789 5789 5791
5786 5785 5785 5784 5784 5784 5784 5783 5782 5783 5784 5784 5786 5788 5787 5787 5788 5789 5791 5790 5786 5781 5780 5780 5780 5783 5784 5786 5786 5784 5784 5785 5787 5788 5785 5785 5787 5788 5789 5791 5790 5791
5787 5787 5787 5786 5786 5784 5783 5784 5784 5784 5784 5785 5786 5788 5788 5788 5787 5789 5789 5790 5788 5783 5779 5776 5776 5779 5782 5785 5786 5786 5786 5786 5787 5788 5785 5786 5788 5789 5791 5792 5792 5792
5786 5786 5787 5786 5786 5785 5784 5784 5785 5785 5785 5784 5785 5785 5786 5786 5787 5787 5787 5787 5787 5784 5779 5775 5772 5775 5781 5786 5787 5786 5785 5786 5787 5787 5785 5787 5788 5789 5793 5795 5795 5796
5786 5786 5786 5785 5785 5784 5783 5783 5783 5784 5784 5783 5783 5783 5784 5784 5785 5787 5787 5787 5786 5783 5780 5778 5775 5777 5781 5785 5785 5785 5785 5786 5787 5786 5785 5786 5786 5788 5793 5797 5797 5797
5784 5783 5783 5782 5782 5781 5781 5781 5781 5782 5783 5782 5781 5781 5782 5782 5783 5786 5786 5787 5787 5784 5782 5781 5780 5780 5781 5783 5784 5785 5785 5785 5787 5786 5785 5785 5786 5788 5792 5795 5794 5793
5781 5781 5780 5779 5779 5779 5779 5779 5779 5780 5781 5780 5780 5779 5779 5779 5781 5783 5785 5787 5787 5785 5782 5781 5781 5781 5780 5782 5784 5785 5785 5785 5786 5786 5786 5786 5788 5791 5793 5793 5792 5789
5779 5779 5778 5778 5779 5778 5778 5777 5778 5778 5779 5778 5777 5777 5778 5779 5780 5782 5785 5786 5785 5783 5781 5780 5780 5780 5781 5781 5782 5782 5784 5786 5787 5785 5785 5786 5790 5793 5794 5793 5791 5789
5775 5775 5777 5779 5779 5778 5778 5777 5777 5776 5776 5775 5775 5775 5777 5778 5779 5780 5782 5783 5782 5781 5779 5778 5780 5781 5780 5779 5779 5782 5785 5787 5787 5786 5785 5787 5789 5792 5792 5791 5789 5789
5774 5775 5778 5780 5780 5779 5778 5777 5776 5774 5773 5774 5775 5774 5773 5774 5776 5777 5779 5780 5780 5779 5778 5779 5780 5781 5780 5779 5780 5783 5786 5786 5787 5786 5786 5787 5789 5791 5791 5791 5790 5791
5776 5776 5777 5778 5780 5779 5777 5776 5775 5775 5775 5775 5774 5772 5768 5768 5770 5773 5776 5778 5779 5780 5780 5781 5781 5780 5780 5779 5780 5783 5785 5786 5786 5786 5786 5787 5788 5790 5791 5791 5791 5792
5776 5774 5776 5777 5779 5778 5776 5775 5774 5777 5779 5777 5774 5770 5764 5763 5768 5773 5775 5777 5781 5782 5781 5779 5780 5779 5779 5779 5780 5782 5783 5785 5786 5786 5786 5787 5788 5789 5790 5791 5791 5791
5780 5778 5778 5778 5778 5779 5776 5773 5771 5775 5779 5779 5776 5773 5766 5763 5769 5774 5776 5778 5782 5782 5778 5777 5778 5777 5777 5779 5781 5782 5783 5785 5786 5786 5787 5787 5787 5787 5788 5790 5791 5791
5783 5782 5781 5780 5780 5779 5776 5772 5770 5774 5778 5780 5781 5778 5771 5769 5772 5775 5777 5778 5780 5779 5775 5775 5775 5775 5775 5777 5779 5781 5782 5785 5786 5786 5786 5786 5786 5786 5786 5788 5789 5790
5786 5785 5784 5782 5780 5778 5776 5775 5774 5775 5776 5777 5779 5777 5772 5770 5773 5776 5778 5778 5777 5775 5772 5772 5773 5773 5774 5775 5776 5778 5780 5784 5786 5786 5786 5786 5786 5787 5786 5786 5788 5789
5790 5789 5787 5784 5783 5780 5779 5778 5776 5774 5774 5773 5774 5773 5770 5770 5772 5776 5778 5778 5777 5775 5773 5773 5772 5772 5772 5773 5774 5776 5778 5782 5785 5787 5787 5786 5787 5787 5786 5787 5787 5787
5792 5792 5790 5788 5787 5784 5782 5781 5778 5776 5775 5775 5776 5775 5773 5773 5773 5775 5776 5778 5780 5780 5776 5774 5772 5770 5771 5771 5772 5775 5777 5780 5784 5787 5788 5788 5789 5789 5788 5787 5787 5787
5793 5793 5792 5791 5789 5787 5785 5783 5781 5780 5778 5778 5779 5777 5776 5776 5776 5776 5776 5778 5781 5781 5776 5771 5770 5769 5770 5771 5773 5774 5777 5781 5784 5786 5788 5789 5791 5791 5790 5789 5788 5787
5794 5793 5792 5791 5789 5788 5786 5784 5783 5782 5782 5781 5780 5778 5778 5778 5776 5776 5776 5777 5779 5780 5774 5769 5768 5768 5769 5770 5772 5775 5778 5781 5783 5784 5786 5788 5790 5791 5791 5790 5789 5788
5793 5792 5790 5790 5789 5787 5786 5785 5785 5784 5783 5782 5780 5778 5777 5776 5775 5776 5776 5776 5777 5777 5773 5768 5767 5767 5767 5769 5771 5773 5776 5778 5779 5780 5782 5785 5787 5789 5789 5787 5787 5787
5792 5791 5789 5788 5788 5787 5786 5785 5785 5784 5783 5783 5780 5778 5777 5777 5776 5776 5776 5775 5776 5777 5776 5771 5767 5767 5767 5768 5771 5772 5774 5775 5776 5777 5778 5781 5783 5785 5785 5784 5784 5784
5791 5790 5788 5788 5787 5786 5786 5785 5784 5783 5782 5782 5780 5779 5779 5779 5779 5778 5777 5777 5777 5778 5778 5773 5769 5768 5768 5768 5770 5771 5772 5774 5774 5775 5776 5778 5779 5780 5780 5781 5780 5778
5789 5788 5788 5788 5786 5786 5786 5784 5783 5782 5781 5780 5779 5779 5779 5779 5780 5779 5777 5777 5777 5778 5778 5775 5770 5768 5768 5768 5769 5769 5770 5773 5772 5772 5773 5773 5774 5775 5775 5776 5776 5774